Home   Weather   Niagara Falls   Past weeks

Flag for Canada Past Weather in Niagara Falls, Ontario, Canada — Yesterday and Last 2 Weeks

Now
69 °F

Passing clouds.


Feels Like: 69 °F
Forecast: 65 / 76 °F
Wind: 9 mph from West

Location: Niagara Falls International Airport

Current Time: Aug 19, 2017 at 9:24:57 am

Latest Report: Aug 19, 2017 at 7:53 am


Visibility: 10 mi

Pressure: 29.82 "Hg

Humidity: 70%

Dew Point: 59 °F

Location of Niagara FallsLocation

Past Weather in Niagara Falls — Graph

°F

Niagara Falls Temperature Yesterday

Maximum temperature yesterday: 83 °F (at 2:53 pm)
Minimum temperature yesterday: 73 °F (at 11:53 pm)
Average temperature yesterday: 77 °F

High & Low Weather Summary for the Past Weeks

 TemperatureHumidityPressure
High84 °F (Aug 10, 3:53 pm)90% (Aug 8, 12:15 am)30.19 "Hg (Aug 8, 12:15 am)
Low54 °F (Aug 6, 5:53 am)31% (Aug 10, 4:53 pm)29.69 "Hg (Aug 18, 4:53 am)
Average71 °F70%29.95 "Hg
* Reported Aug 4 7:53 am — Aug 19 7:53 am, Niagara Falls. Weather by CustomWeather, © 2017

Note: Actual official high and low records may vary slightly from our data, if they occured in-between our weather recording intervals... More about our weather records

Advertising

Niagara Falls Weather History for the Previous 24 Hours

Scroll right to see more
 ConditionsComfort  
Time TempWeatherWind HumidityBarometerVisibility
7:53 am
Sat, Aug 19
69 °FPassing clouds.9 mph70%29.82 "Hg10 mi
6:53 am68 °FOvercast.8 mph76%29.81 "Hg10 mi
5:53 am67 °FClear.9 mph79%29.80 "Hg10 mi
4:53 am69 °FPassing clouds.10 mph76%29.78 "Hg10 mi
3:53 am69 °FOvercast.9 mph76%29.78 "Hg10 mi
2:53 am69 °FPassing clouds.12 mph76%29.79 "Hg10 mi
1:53 am71 °FMostly cloudy.9 mph73%29.80 "Hg10 mi
12:53 am73 °FOvercast.9 mph69%29.80 "Hg10 mi
11:53 pm
Fri, Aug 18
73 °FOvercast.9 mph69%29.79 "Hg10 mi
10:53 pm74 °FOvercast.9 mph67%29.78 "Hg10 mi
9:53 pm75 °FMostly cloudy.13 mph62%29.77 "Hg10 mi
8:53 pm76 °FOvercast.13 mph60%29.75 "Hg10 mi
7:53 pm76 °FMore clouds than sun.10 mph69%29.74 "Hg10 mi
6:53 pm77 °FMostly cloudy.14 mph64%29.72 "Hg10 mi
5:53 pm77 °FOvercast.20 mph64%29.72 "Hg10 mi
4:53 pm80 °FScattered clouds.21 mph60%29.70 "Hg10 mi
3:53 pm80 °FScattered clouds.20 mph62%29.70 "Hg10 mi
2:53 pm83 °FScattered clouds.18 mph55%29.70 "Hg10 mi
1:53 pm82 °FScattered clouds.20 mph55%29.70 "Hg10 mi
12:53 pm81 °FScattered clouds.21 mph62%29.71 "Hg10 mi
11:53 am80 °FPartly sunny.20 mph67%29.71 "Hg10 mi
10:53 am81 °FPartly sunny.16 mph67%29.71 "Hg10 mi
10:35 am82 °FPartly sunny.18 mph65%29.74 "Hg10 mi
9:58 am79 °FBroken clouds.17 mph69%29.74 "Hg10 mi
Weather by CustomWeather, © 2017

See weather overviewHow to use our weather pages